Helicity
85 97 74 30 20 24 76 103 166 117 63 64 58 44 44 7 24 42 58 26 32 41 105 111 114 98 105 114 101 86 128 100 83 46 23 29 77 63 51 76 107 73 77 50 41
32 32 61 61 48 40 34 88 83 87 78 61 77 55 34 12 28 43 19 17 30 50 94 107 109 111 140 123 110 105 86 36 36 54 47 100 72 112 69 117 119 106 56 36 43
3 23 19 56 31 61 83 64 98 45 18 16 12 41 35 14 37 62 34 3 6 32 81 87 96 121 127 110 88 84 80 73 105 88 78 93 75 56 71 69 77 134 150 105 81
-8 10 30 32 56 48 45 90 129 95 28 44 36 55 28 32 70 84 35 -6 -2 102 90 87 103 107 84 65 70 78 49 109 85 103 53 59 46 76 81 117 65 99 114 125 111
4 -21 -30 -1 34 34 40 54 134 100 49 21 39 29 26 78 70 36 5 6 85 81 71 76 107 100 77 75 58 102 99 71 39 57 91 62 49 88 84 167 187 146 92 70 72
9 -1 4 -21 -9 -2 73 62 89 79 41 40 47 31 42 69 37 42 44 54 68 68 48 70 76 71 70 53 25 46 61 68 60 116 100 73 43 51 171 153 116 118 94 64 57
22 6 0 18 17 -31 111 139 26 91 60 52 29 29 37 34 26 27 24 21 35 62 62 36 46 71 50 17 20 29 27 58 93 49 37 -11 77 45 53 33 35 38 85 105 104
-1 4 30 1 1 -11 163 139 34 39 32 43 12 17 42 15 29 14 15 22 28 18 34 60 29 29 33 26 30 44 19 55 46 71 -6 24 28 151 -22 -59 -50 -43 -34 -1 27
2 30 7 -18 15 51 165 87 16 1 0 -16 18 38 33 18 16 -4 20 30 44 44 46 14 25 39 44 50 31 60 40 31 57 28 -1 -25 64 26 -71 -99 -63 -55 -30 -37 34
36 11 -17 0 26 74 89 33 29 -4 -7 14 21 45 35 54 42 13 5 8 -18 17 41 55 50 73 60 67 62 50 33 46 96 43 61 33 68 -7 -59 -42 13 33 6 1 -12
49 30 25 49 45 88 97 81 100 108 89 68 88 50 61 80 23 -7 -10 -2 -5 9 4 51 59 53 47 47 43 52 40 57 44 81 21 57 15 -38 -44 -56 -7 7 44 32 -78
38 46 67 41 20 46 67 76 80 82 113 113 96 71 71 45 -25 -22 -10 -10 3 25 49 59 41 75 39 70 54 44 31 8 -21 15 -4 60 -3 54 -48 -65 33 -26 19 20 -83
37 28 17 38 64 97 44 105 119 90 87 133 78 55 45 12 -19 -17 -13 1 28 69 89 96 78 48 41 19 16 20 12 14 7 17 46 14 -3 -59 112 -2 34 249 151 120 -10
45 19 25 67 58 119 97 111 75 43 86 110 80 42 19 8 -16 -7 6 23 51 91 94 89 56 69 40 23 8 57 22 9 35 58 72 10 -8 -96 49 162 69 199 304 249 95
20 75 80 21 39 33 80 84 64 40 71 102 57 47 23 -3 24 10 11 32 123 128 121 123 67 43 58 52 1 6 17 55 21 63 72 28 -49 -94 -5 256 207 199 321 328 157
18 0 39 57 54 75 87 65 30 48 93 56 42 29 17 20 22 28 27 18 72 120 99 127 67 67 72 43 49 35 21 36 54 44 88 80 -53 -56 71 222 272 189 311 366 318
102 93 44 62 77 90 52 24 59 27 48 60 51 32 51 65 52 64 91 81 114 148 134 22 54 24 33 42 45 6 35 68 91 89 60 80 -12 -22 70 106 103 185 276 353 534
74 100 84 51 57 36 4 27 -5 70 62 48 49 52 61 58 74 70 107 104 114 113 115 97 50 55 40 66 68 78 43 60 61 59 72 44 28 1 25 33 59 83 185 235 573
92 112 88 104 41 6 12 -20 37 53 41 40 42 58 68 69 83 93 83 117 114 108 148 104 78 55 76 66 36 26 18 58 37 31 47 42 -29 -37 58 83 118 124 216 240 342
104 101 147 115 44 26 17 48 36 49 40 39 61 69 74 64 84 86 99 126 119 99 98 95 73 57 47 44 35 0 29 55 25 -1 -76 27 2 -12 78 139 160 129 160 207 220
92 72 125 69 37 36 94 60 60 44 26 40 42 52 58 66 75 89 97 110 95 85 91 99 118 49 45 41 102 48 39 37 37 24 -37 -59 -13 -16 16 69 78 78 105 119 176
61 37 96 20 8 49 63 39 45 38 16 22 33 34 47 39 61 77 90 108 67 74 85 96 146 139 103 69 61 47 45 57 35 42 -10 -28 -16 -9 11 -6 6 31 62 85 49
26 60 66 22 -16 13 14 20 13 -2 6 5 10 21 29 42 49 56 64 67 64 74 80 74 104 115 61 75 54 75 68 37 33 6 -2 -27 -10 -41 -3 1 -20 5 36 47 56
7 -16 25 -11 -36 -7 -9 1 5 -2 2 2 1 32 34 39 40 56 49 57 47 54 56 77 110 150 176 165 108 73 69 75 96 122 113 36 -6 8 0 -7 0 11 17 40 35
23 14 4 -23 -12 0 -6 -3 -3 2 17 14 24 10 26 37 34 35 54 40 49 25 54 85 118 121 115 127 140 143 104 56 70 109 125 124 106 21 4 13 -15 -6 22 27 44
69 39 2 20 10 16 14 15 20 9 15 6 19 8 21 43 47 34 15 32 56 32 45 48 94 105 111 131 134 139 140 133 126 119 98 98 106 89 35 2 39 17 8 24 38
58 56 50 44 63 86 66 47 31 25 32 31 32 25 17 26 45 43 38 24 20 36 45 54 70 75 91 86 78 93 149 187 170 162 139 138 90 112 109 69 12 14 55 40 15
Wind_Speed
82 81 75 67 60 56 55 52 48 44 38 24 27 26 28 31 33 35 40 31 22 15 19 24 31 30 33 37 38 38 57 69 67 66 60 56 69 64 63 77 78 81 92 96 97
86 82 75 69 65 56 51 50 49 46 42 18 21 24 28 30 34 40 32 19 15 11 21 27 32 31 38 41 41 46 59 60 49 53 65 71 74 80 77 87 94 93 91 92 94
85 78 71 67 62 54 50 47 44 50 27 10 17 22 26 29 33 34 27 12 13 12 22 27 27 33 38 39 41 43 58 53 62 61 67 79 84 73 83 94 89 92 93 87 89
79 72 68 62 55 52 47 42 40 29 6 9 14 19 23 27 29 30 22 16 14 12 22 27 31 34 40 43 40 54 53 59 62 63 68 80 80 86 82 102 91 92 93 95 94
81 71 62 57 45 44 43 37 33 25 6 8 10 14 20 25 25 25 20 18 19 19 22 28 30 33 45 44 47 51 60 57 61 75 73 74 84 86 99 95 91 90 90 94 95
82 72 60 50 41 37 38 35 32 29 5 6 9 15 21 23 27 25 18 20 20 22 23 25 33 33 50 51 52 51 59 69 66 71 65 66 74 61 72 75 78 78 87 89 90
75 65 55 41 30 29 33 31 19 9 5 4 15 22 22 21 26 20 22 22 23 22 27 24 38 46 42 52 49 53 62 66 63 53 51 54 58 42 67 73 76 81 82 83 84
67 44 35 29 25 25 32 31 25 7 9 7 28 28 20 26 27 19 22 26 27 26 34 38 36 49 43 51 56 55 45 49 49 55 48 41 60 56 64 78 81 88 91 90 88
54 37 41 13 17 22 27 30 22 12 22 20 29 27 22 22 23 18 22 30 28 30 32 37 40 36 44 55 54 43 54 53 59 46 49 46 67 54 70 79 82 83 84 88 91
17 23 19 13 15 18 30 36 29 30 27 31 30 12 25 25 28 34 34 25 25 23 21 26 27 37 41 48 54 53 60 56 63 55 65 66 65 66 70 72 74 78 84 85 87
27 20 25 25 25 28 44 48 44 37 22 21 12 21 28 27 31 30 34 31 24 21 15 25 26 28 49 60 71 70 66 67 65 69 65 66 67 64 74 72 66 74 66 62 58
36 23 26 23 25 38 39 47 46 45 7 19 28 30 28 28 33 30 32 27 23 16 17 22 15 40 49 60 63 65 73 76 65 56 64 67 62 55 71 62 67 59 64 60 57
40 33 33 42 44 45 50 43 38 40 39 32 30 31 29 24 30 31 30 25 19 15 13 11 20 52 55 58 62 65 68 71 68 62 55 55 50 30 60 57 64 68 67 63 63
40 38 30 38 46 45 48 31 35 32 50 33 28 26 26 26 31 27 25 22 23 22 24 19 23 30 42 52 61 66 53 53 54 49 46 46 49 41 58 55 65 63 70 57 57
41 39 35 44 55 54 43 32 33 32 61 30 30 25 26 31 28 27 25 25 23 24 28 29 26 20 22 35 53 44 45 55 45 39 39 40 46 32 49 47 59 61 58 47 36
36 33 35 44 47 42 30 32 31 48 59 37 32 33 32 31 31 27 32 29 27 31 32 28 27 31 23 2 21 25 37 28 27 27 31 35 35 28 41 49 49 47 35 36 33
35 33 41 40 44 24 28 32 51 60 42 44 41 33 31 31 32 31 33 40 48 50 52 39 35 29 31 28 32 12 31 15 22 33 25 27 30 27 41 46 50 42 31 29 26
33 31 31 29 20 23 29 44 62 52 50 41 37 32 35 29 32 31 35 41 41 47 49 54 57 44 34 38 31 30 37 36 8 32 30 28 26 26 37 41 47 51 40 37 32
25 31 28 17 22 27 35 54 58 53 42 40 35 37 35 31 31 33 37 42 39 43 54 52 51 39 40 39 39 41 45 27 31 24 25 29 29 30 38 37 41 50 52 41 26
32 33 26 9 27 35 47 55 43 34 31 30 35 34 35 32 35 36 37 38 39 38 39 46 52 47 40 42 42 44 34 35 22 35 40 31 30 27 34 37 40 47 50 38 28
24 40 23 11 36 39 53 44 38 28 28 28 28 27 29 31 33 37 37 35 37 35 38 41 49 48 48 52 50 47 42 36 36 23 38 35 33 30 32 37 42 43 45 48 40
26 38 9 20 37 36 37 36 27 28 28 31 29 26 25 22 28 33 35 36 31 34 45 40 46 51 48 40 38 43 45 42 38 35 22 20 17 31 31 37 38 41 45 42 45
34 29 19 23 47 44 37 34 35 32 30 30 29 31 31 30 28 30 29 32 34 39 41 42 50 52 46 45 44 47 42 41 39 35 31 24 32 33 35 35 38 40 41 45 45
36 32 13 43 42 38 36 35 30 26 32 29 29 29 26 25 30 27 26 28 29 34 35 38 47 52 57 47 40 40 40 40 43 46 41 29 13 41 41 40 40 41 42 41 40
38 30 27 30 36 37 34 31 29 34 34 36 30 38 26 26 23 26 26 24 28 29 34 37 40 41 38 37 36 34 31 36 41 41 44 38 32 24 42 45 44 42 41 40 39
35 33 31 26 30 35 35 29 33 32 31 33 38 36 42 32 30 23 23 29 29 25 32 31 32 33 32 34 31 31 28 31 33 35 32 31 29 30 28 20 43 43 40 39 41
36 33 31 27 27 26 23 28 33 37 34 37 37 35 32 31 28 25 25 24 24 25 27 30 30 28 32 30 26 37 37 35 34 31 31 36 33 31 30 28 25 19 33 40 40
Wind_Direction
318 313 310 306 306 309 310 303 297 294 297 297 302 313 313 314 318 314 301 312 330 356 354 340 330 331 328 314 314 312 294 288 288 285 285 291 288 293 292 283 279 275 271 272 272
321 312 308 306 306 306 312 309 293 290 289 300 304 310 308 312 314 305 317 341 355 32 336 331 320 323 314 310 308 298 292 292 296 294 289 291 290 290 288 284 279 279 278 276 272
328 318 314 305 307 307 308 309 301 283 286 293 307 309 310 313 308 313 342 44 30 30 345 338 336 320 310 309 301 303 292 300 296 297 295 290 288 293 289 282 283 280 279 279 274
327 325 320 319 308 307 311 306 300 295 268 305 308 309 305 313 309 327 32 48 46 33 347 338 323 313 305 300 306 297 300 297 299 300 299 291 294 290 288 281 287 284 282 280 276
321 314 315 317 308 303 309 303 294 293 310 343 329 312 321 323 321 336 33 33 22 1 340 326 320 311 299 304 305 299 297 302 304 299 299 299 290 289 287 286 289 287 284 279 276
330 318 302 295 307 297 291 288 282 274 302 3 340 300 325 325 320 326 28 17 7 351 341 332 319 314 299 297 292 300 301 299 301 299 302 301 298 306 298 304 298 293 285 280 277
327 321 310 290 299 284 257 253 257 57 29 358 271 279 338 345 326 360 33 8 351 355 333 335 308 297 300 292 295 301 303 294 284 293 310 304 306 315 308 306 303 298 293 288 283
330 303 293 307 249 251 225 226 231 254 243 256 225 236 333 298 310 29 8 343 344 345 330 323 321 291 303 292 298 302 313 310 288 292 310 333 295 279 307 300 292 295 292 288 283
331 337 26 300 228 221 217 207 204 201 202 216 207 220 352 310 13 358 347 336 352 343 336 323 315 321 311 299 301 305 299 300 289 310 314 320 284 272 304 306 299 292 284 270 281
348 341 157 182 202 202 181 173 181 183 192 188 189 272 333 239 238 221 167 127 143 93 29 1 353 327 321 306 295 297 293 299 288 293 298 282 269 293 310 308 303 297 294 286 270
84 112 142 154 166 167 160 159 165 166 167 190 257 205 189 209 202 181 164 137 118 85 91 18 360 340 315 302 282 286 289 290 294 291 290 288 280 314 319 311 297 307 291 278 260
93 108 134 152 157 159 163 156 161 165 167 195 183 176 187 187 157 155 158 120 94 91 59 15 347 328 316 307 296 292 284 280 292 299 293 282 276 324 319 303 306 296 293 285 273
94 115 130 132 138 142 145 152 165 165 155 153 163 161 169 184 152 140 123 105 90 67 41 7 350 328 315 307 299 294 287 282 282 294 293 287 283 267 307 305 312 309 306 295 289
95 110 130 139 140 148 148 162 165 171 141 144 156 164 173 167 135 141 124 102 77 54 43 46 42 17 342 317 306 295 295 286 283 291 286 292 278 270 309 307 323 318 316 305 301
93 108 124 132 138 140 151 167 171 168 127 152 149 181 162 138 138 116 113 93 66 58 59 60 66 66 69 16 320 310 295 276 274 283 280 273 255 251 310 314 324 322 315 315 306
98 108 126 132 137 147 163 164 163 132 120 140 146 140 133 127 118 114 93 81 78 62 70 76 88 84 87 151 125 256 273 279 269 269 274 258 241 256 312 312 310 322 329 333 331
105 113 119 131 137 168 165 153 126 116 136 130 131 134 128 118 109 98 83 68 63 60 61 71 85 71 83 86 107 165 178 253 241 231 255 253 238 252 311 318 321 319 322 343 344
114 122 130 137 164 174 158 133 112 122 124 136 132 130 113 112 103 95 82 68 73 67 67 67 70 71 77 83 102 128 144 176 238 221 236 243 244 259 314 319 330 335 332 343 359
137 128 126 135 170 163 144 118 116 120 130 127 125 111 106 104 99 90 79 71 75 71 66 68 73 82 85 86 98 110 115 176 185 227 237 232 247 276 311 322 332 344 348 345 343
126 130 119 156 151 141 127 120 126 135 139 134 116 113 100 96 91 84 78 80 73 76 79 76 73 78 85 89 93 103 119 121 187 152 134 239 244 264 306 317 328 344 350 348 346
137 121 124 173 135 129 116 124 127 136 134 131 125 120 107 98 91 85 80 85 74 76 86 82 78 76 81 79 82 86 94 108 126 217 116 134 247 270 291 311 329 337 345 352 348
140 118 173 157 123 127 124 124 136 128 120 115 115 116 113 109 97 89 83 82 80 82 75 82 79 75 81 90 94 91 86 94 109 126 280 327 244 269 275 314 323 333 343 345 350
101 126 151 146 85 103 116 116 106 106 102 105 108 100 95 93 99 91 92 88 83 79 77 79 74 72 77 84 89 84 84 87 99 112 130 98 272 291 291 306 324 329 335 347 351
55 71 303 25 76 86 89 88 99 102 88 93 85 87 92 95 88 92 89 94 87 82 87 86 77 76 74 83 87 84 83 85 90 91 97 118 346 286 291 303 311 320 330 335 343
17 43 48 36 31 37 52 65 70 55 56 57 71 57 78 82 84 83 87 92 90 83 83 83 78 80 85 90 90 88 89 89 89 94 90 95 105 143 297 296 302 309 312 326 331
17 17 17 17 10 3 9 39 33 43 52 40 29 34 32 53 59 72 79 73 80 85 80 81 82 79 83 90 91 85 93 95 97 100 101 101 99 120 124 181 300 300 305 311 321
4 14 11 7 1 358 9 7 2 6 12 20 21 24 32 39 51 56 61 74 75 72 73 74 76 80 81 82 88 79 86 96 99 106 107 96 106 119 121 120 128 179 295 306 310